Location: Newark
(12.4436°N, 0.6167°W)
Time: 20:53:18
(UTC+00:00)

Vanguard 1 - All Passes

Search period start: 10 December 2019 00:00
Search period end: 20 December 2019 00:00
Orbit: 652 x 3832 km, 34.3° (Epoch: 09 December)

Date Brightness Start Highest point End Pass type
(mag) Time Alt. Az. Time Alt. Az. Time Alt. Az.
10 Dec - 00:25:08 10° SSW 00:41:44 53° SE 01:04:09 10° ENE visible
10 Dec - 02:47:23 10° WSW 03:08:47 75° NNW 03:31:16 10° NE visible
10 Dec - 05:17:08 10° W 05:38:46 42° NNW 05:55:20 10° NE visible
10 Dec - 07:52:03 10° NW 08:08:46 32° N 08:19:13 10° ENE daylight
10 Dec - 10:21:51 10° NW 10:34:55 51° NNE 10:41:59 10° E daylight
10 Dec - 12:48:21 10° WNW 12:56:02 36° SW 13:00:57 10° SSE daylight
10 Dec - 22:28:43 10° S 22:38:41 21° SE 22:51:57 10° E visible
11 Dec - 00:45:42 10° SW 01:03:01 66° SE 01:26:26 10° ENE visible
11 Dec - 03:09:19 10° WSW 03:30:52 64° NNW 03:52:43 10° NE visible
11 Dec - 05:40:37 10° WNW 06:01:32 38° NNW 06:17:01 10° NE visible
11 Dec - 08:14:48 10° NW 08:31:16 35° N 08:41:11 10° ENE daylight
11 Dec - 10:43:27 10° NW 10:56:25 68° NNE 11:03:16 10° ESE daylight
11 Dec - 13:10:57 10° W 13:16:36 21° SW 13:20:43 10° S daylight
11 Dec - 22:47:54 10° S 22:59:49 29° SE 23:16:48 10° E visible
12 Dec - 01:06:32 10° SW 01:24:27 80° SE 01:48:23 10° ENE visible
12 Dec - 03:31:36 10° W 03:53:12 55° NNW 04:14:12 10° NE visible
12 Dec - 06:04:09 10° WNW 06:24:26 36° N 06:38:52 10° NE daylight
12 Dec - 08:37:09 10° NW 08:53:36 40° NNE 09:03:05 10° E daylight
12 Dec - 11:05:07 10° WNW 11:17:39 87° SW 11:24:14 10° SE daylight
12 Dec - 13:35:22 10° WSW 13:37:10 11° SW 13:38:48 10° SSW daylight
12 Dec - 23:07:42 10° SSW 23:20:49 40° SE 23:40:27 10° ENE visible
13 Dec - 01:27:41 10° WSW 01:46:06 86° NW 02:10:08 10° NE visible
13 Dec - 03:54:15 10° W 04:15:48 48° NNW 04:35:47 10° NE visible
13 Dec - 06:27:33 10° WNW 06:47:21 35° N 07:00:54 10° ENE daylight
13 Dec - 08:59:11 10° NW 09:15:42 47° NNE 09:24:49 10° E daylight
13 Dec - 11:26:58 10° WNW 11:38:35 60° SW 11:44:55 10° SE daylight
13 Dec - 21:16:44 10° SE 21:19:02 10° SE 21:21:31 10° ESE visible
13 Dec - 23:27:53 10° SSW 23:41:49 52° SE 00:03:21 10° ENE visible
14 Dec - 01:49:08 10° WSW 02:07:59 73° NNW 02:31:46 10° NE visible
14 Dec - 04:17:14 10° W 04:38:37 43° NNW 04:57:33 10° NE visible
14 Dec - 06:50:38 10° WNW 07:10:12 37° N 07:23:01 10° ENE daylight
14 Dec - 09:21:02 10° NW 09:37:33 59° NNE 09:46:18 10° ESE daylight
14 Dec - 11:49:09 10° WNW 11:59:16 39° SW 12:05:15 10° SSE daylight
14 Dec - 21:32:28 10° S 21:40:08 18° SE 21:50:24 10° E visible
14 Dec - 23:48:22 10° SW 00:02:56 66° SE 00:25:44 10° ENE visible
15 Dec - 02:10:55 10° WSW 02:30:08 62° NNW 02:53:24 10° NE visible
15 Dec - 04:40:25 10° WNW 05:01:38 39° N 05:19:30 10° NE visible
15 Dec - 07:13:21 10° NW 07:32:54 40° N 07:45:06 10° ENE daylight
15 Dec - 09:42:49 10° NW 09:59:08 75° NNE 10:07:32 10° ESE daylight
15 Dec - 12:11:55 10° W 12:19:49 25° SW 12:25:04 10° S daylight
15 Dec - 21:51:23 10° S 22:01:01 27° SE 22:15:26 10° E visible
16 Dec - 00:09:09 10° SW 00:24:15 81° SE 00:47:49 10° ENE visible
16 Dec - 02:33:02 10° W 02:52:34 54° NNW 03:15:06 10° NE visible
16 Dec - 05:03:39 10° WNW 05:24:46 38° N 05:41:40 10° ENE visible
16 Dec - 07:35:43 10° NW 07:55:23 45° NNE 08:07:03 10° E daylight
16 Dec - 10:04:39 10° WNW 10:20:24 83° SW 10:28:29 10° SE daylight
16 Dec - 12:35:53 10° W 12:40:21 14° SW 12:43:54 10° SSW daylight
16 Dec - 22:11:03 10° SSW 22:21:48 37° SE 22:39:09 10° ENE visible
17 Dec - 00:30:13 10° WSW 00:45:49 84° NW 01:09:41 10° NE visible
17 Dec - 02:55:28 10° W 03:15:16 47° NNW 03:36:57 10° NE visible
17 Dec - 05:26:46 10° WNW 05:47:55 38° N 06:03:57 10° ENE visible
17 Dec - 07:57:49 10° NW 08:17:36 54° NNE 08:28:48 10° E daylight
17 Dec - 10:26:41 10° WNW 10:41:22 61° SW 10:49:09 10° SE daylight
17 Dec - 22:31:09 10° SSW 22:42:38 51° SE 23:02:06 10° ENE visible
18 Dec - 00:51:36 10° WSW 01:07:40 71° NNW 01:31:28 10° NE visible
18 Dec - 03:18:11 10° W 03:38:15 43° NNW 03:59:00 10° NE visible
18 Dec - 05:49:38 10° WNW 06:10:57 40° N 06:26:16 10° ENE visible
18 Dec - 08:19:44 10° NW 08:39:32 65° NNE 08:50:18 10° ESE daylight
18 Dec - 10:49:03 10° WNW 11:02:05 42° SW 11:09:28 10° SSE daylight
18 Dec - 20:36:49 10° SSE 20:42:08 15° SE 20:48:57 10° E visible
18 Dec - 22:51:36 10° SW 23:03:35 66° SE 23:24:32 10° ENE visible
19 Dec - 01:13:16 10° WSW 01:29:48 60° NNW 01:53:16 10° NE visible
19 Dec - 03:41:04 10° WNW 04:01:24 40° N 04:21:15 10° ENE visible
19 Dec - 06:12:11 10° NW 06:33:47 44° NNE 06:48:30 10° E daylight
19 Dec - 08:41:37 10° NW 09:01:10 81° NNE 09:11:32 10° ESE daylight
19 Dec - 11:11:58 10° WNW 11:22:40 28° SW 11:29:22 10° S daylight
19 Dec - 20:55:16 10° S 21:02:51 23° SE 21:14:11 10° E visible
